EW5123 Weather Reports


time (UTC)temp
C
wind
direction
speed
KPH
gust
KPH
rain 1hr
cm
rain 24hr
cm
rain mn
cm
humidity
%
barometer
mb
20260507045056 -1 202 0.0 0.0 0.00 0.84 0.84 85 982.4
20260507044600 -1 202 0.0 0.0 0.00 0.84 0.84 85 982.4
20260507044556 -1 202 0.0 0.0 0.00 0.84 0.84 86 982.5
20260507043556 -1 202 0.0 0.0 0.00 0.84 0.84 84 982.4
20260507043055 -1 202 0.0 0.0 0.00 0.84 0.84 83 982.2
20260507042554 0 202 0.0 0.0 0.00 0.84 0.84 83 982.2
20260507042056 0 202 0.0 0.0 0.00 0.84 0.84 83 982.2
20260507042052 0 202 0.0 0.0 0.00 0.84 0.84 83 982.1
20260507041056 0 202 0.0 0.0 0.00 0.84 0.84 82 982.0
20260507041052 0 202 0.0 0.0 0.00 0.84 0.84 82 982.1
20260507040052 0 202 0.0 0.0 0.00 0.84 0.84 81 982.1
20260507035552 0 201 0.0 3.2 0.00 0.84 0.84 80 982.1
20260507035052 0 202 0.0 3.2 0.00 0.84 0.84 80 982.1
20260507034550 0 200 0.0 4.8 0.00 0.84 0.84 80 982.0
20260507034051 0 194 0.0 3.2 0.00 0.84 0.84 81 982.0
20260507033553 0 184 0.0 9.7 0.00 0.84 0.84 81 982.0
20260507033050 0 176 0.0 9.7 0.00 0.84 0.84 82 981.9
20260507032550 0 167 0.0 3.2 0.00 0.84 0.84 82 981.9
20260507032050 0 134 0.0 3.2 0.00 0.84 0.84 83 981.9
20260507031550 0 162 0.0 1.6 0.00 0.84 0.84 83 981.9
20260507031049 0 196 0.0 4.8 0.00 0.84 0.84 82 981.9
20260507030548 0 171 1.6 4.8 0.00 0.84 0.84 81 981.8
20260507030052 0 168 4.8 8.0 0.00 0.84 0.84 81 981.7
20260507030048 0 176 1.6 8.0 0.00 0.84 0.84 81 981.8
20260507025548 0 192 3.2 8.0 0.00 0.84 0.84 81 981.7
20260507024548 0 158 4.8 11.3 0.00 0.84 0.84 80 981.7
20260507024048 0 165 4.8 11.3 0.00 0.84 0.84 80 981.5
20260507023548 0 169 4.8 11.3 0.00 0.84 0.84 80 981.5
20260507023048 0 169 4.8 11.3 0.00 0.84 0.84 81 981.5
20260507022548 0 173 4.8 14.5 0.00 0.84 0.84 81 981.5
20260507022051 1 172 4.8 12.9 0.00 0.84 0.84 80 981.5
20260507022047 1 150 4.8 14.5 0.00 0.84 0.84 80 981.5
20260507021048 1 188 4.8 12.9 0.00 0.84 0.84 80 981.5
20260507020548 1 155 3.2 9.7 0.00 0.84 0.84 79 981.5
20260507020048 1 172 3.2 9.7 0.00 0.84 0.84 79 981.7
20260507015548 1 154 3.2 8.0 0.00 0.84 0.84 79 981.5
20260507015052 1 180 1.6 4.8 0.03 0.84 0.84 77 981.5
20260507015048 1 198 1.6 8.0 0.03 0.84 0.84 78 981.5
20260507014048 1 141 0.0 4.8 0.03 0.84 0.84 76 981.7
20260507013548 1 174 0.0 3.2 0.03 0.84 0.84 76 981.7
20260507013046 2 179 0.0 3.2 0.05 0.84 0.84 75 981.5
20260507012546 2 135 0.0 1.6 0.05 0.84 0.84 74 981.7
20260507012046 2 189 0.0 1.6 0.05 0.84 0.84 73 981.7
20260507011552 3 190 0.0 1.6 0.08 0.84 0.84 70 981.7
20260507011546 2 163 0.0 1.6 0.08 0.84 0.84 72 981.7
20260507011046 3 193 0.0 1.6 0.08 0.84 0.84 71 981.8
20260507010046 3 200 0.0 3.2 0.10 0.84 0.84 67 981.7
20260507005545 4 136 0.0 4.8 0.10 0.84 0.84 66 981.7
20260507005046 4 137 0.0 4.8 0.10 0.81 0.81 66 981.7
20260507004546 4 215 1.6 6.4 0.10 0.81 0.81 67 981.8
20260507004046 4 148 3.2 8.0 0.13 0.81 0.81 66 981.7
20260507003544 4 151 1.6 8.0 0.13 0.81 0.81 66 981.7
20260507003044 4 146 0.0 6.4 0.13 0.79 0.79 65 981.7
20260507002544 4 169 0.0 3.2 0.15 0.79 0.79 65 981.7
20260507002042 4 180 1.6 6.4 0.15 0.79 0.79 66 981.7
20260507001546 4 196 0.0 6.4 0.18 0.76 0.76 64 981.8
20260507001542 4 160 1.6 6.4 0.15 0.76 0.76 64 981.7
20260507000540 4 148 1.6 6.4 0.18 0.76 0.76 65 981.8
20260507000040 4 168 1.6 6.4 0.18 0.74 0.74 63 981.8
20260506235540 5 169 0.0 6.4 0.18 0.74 0.74 60 981.8
20260506235044 5 131 0.0 3.2 0.18 0.71 0.71 61 981.8
20260506235040 5 188 0.0 3.2 0.18 0.71 0.74 62 981.8
20260506234645 5 136 0.0 3.2 0.18 0.69 0.69 62 981.8
20260506233543 5 186 0.0 1.6 0.18 0.69 0.69 60 981.9
20260506233539 5 217 0.0 1.6 0.18 0.69 0.66 61 981.9
20260506232538 5 142 0.0 0.0 0.15 0.66 0.64 63 982.0
20260506232036 5 262 0.0 1.6 0.18 0.66 0.64 63 982.1
20260506231536 5 295 0.0 1.6 0.18 0.64 0.61 63 981.9
20260506231036 5 111 0.0 1.6 0.15 0.61 0.61 62 982.0
20260506230539 4 108 0.0 1.6 0.18 0.58 0.56 66 981.9
20260506230535 5 0 0.0 1.6 0.18 0.61 0.58 65 981.8
20260506225535 4 131 0.0 1.6 0.20 0.58 0.56 69 981.9
20260506225035 3 120 0.0 1.6 0.18 0.56 0.53 69 982.0
20260506224535 3 195 0.0 1.6 0.20 0.56 0.53 67 982.0
20260506224035 3 39 0.0 1.6 0.18 0.53 0.51 70 982.0
20260506223536 3 85 0.0 1.6 0.18 0.53 0.51 69 982.0
20260506223036 3 143 0.0 1.6 0.18 0.51 0.48 71 982.0
20260506222535 2 212 0.0 3.2 0.20 0.51 0.48 72 982.1
20260506222039 3 204 1.6 4.8 0.18 0.46 0.46 67 982.1
20260506222035 2 218 1.6 4.8 0.18 0.48 0.46 68 982.1
20260506221641 3 153 0.0 3.2 0.18 0.46 0.43 71 982.2
20260506220535 2 248 0.0 3.2 0.18 0.43 0.41 75 982.4
20260506220036 2 328 0.0 3.2 0.15 0.41 0.38 75 982.4
20260506215535 1 251 0.0 6.4 0.15 0.38 0.36 76 982.4
20260506215138 1 302 0.0 6.4 0.15 0.38 0.36 77 982.5
20260506214636 1 257 0.0 3.2 0.13 0.36 0.36 77 982.6
20260506214137 1 236 0.0 4.8 0.15 0.36 0.33 75 982.6
20260506212527 1 345 0.0 3.2 0.13 0.30 0.30 72 982.8
20260506212027 1 318 0.0 3.2 0.13 0.33 0.28 74 982.7
20260506211527 1 324 0.0 1.6 0.13 0.30 0.25 74 982.8
20260506211027 2 340 0.0 4.8 0.13 0.30 0.25 71 982.8
20260506210527 2 15 0.0 4.8 0.10 0.28 0.23 73 982.8
20260506210027 2 328 0.0 4.8 0.13 0.28 0.23 71 982.8
20260506205529 2 91 0.0 3.2 0.13 0.25 0.20 73 982.8
20260506205525 2 332 0.0 3.2 0.10 0.25 0.20 72 982.8
20260506204525 2 354 0.0 1.6 0.13 0.25 0.20 76 982.8
20260506204025 2 323 0.0 3.2 0.10 0.23 0.18 75 982.8
20260506203525 2 1 0.0 4.8 0.10 0.23 0.18 78 982.8
20260506203025 1 349 1.6 4.8 0.10 0.20 0.15 77 983.0
20260506202525 1 21 1.6 8.0 0.10 0.20 0.15 80 983.0
20260506202027 1 4 1.6 8.0 0.10 0.20 0.15 79 983.1
20260506201527 1 349 0.0 4.8 0.08 0.18 0.13 79 983.1
20260506201026 1 330 0.0 4.8 0.10 0.18 0.13 78 983.1
20260506200523 1 313 0.0 6.4 0.10 0.18 0.13 79 983.1
20260506200023 1 151 0.0 6.4 0.08 0.15 0.10 81 983.1
20260506195521 1 304 1.6 6.4 0.08 0.15 0.10 80 983.1
20260506195021 1 346 1.6 6.4 0.08 0.13 0.08 79 983.0
20260506194521 1 312 1.6 8.0 0.08 0.13 0.08 78 983.0
20260506194022 1 343 1.6 8.0 0.08 0.13 0.08 81 983.1
20260506193521 1 335 1.6 9.7 0.08 0.13 0.08 84 983.0
20260506193021 0 6 3.2 9.7 0.05 0.10 0.08 83 983.0
20260506192521 1 333 1.6 9.7 0.05 0.10 0.05 83 983.0
20260506192021 1 27 1.6 9.7 0.05 0.10 0.05 83 983.1
20260506191519 1 332 0.0 9.7 0.05 0.13 0.05 85 982.8
20260506191019 1 352 0.0 0.0 0.03 0.10 0.03 87 983.0
20260506190520 0 2 0.0 1.6 0.03 0.10 0.03 88 983.0
20260506190019 0 30 0.0 1.6 0.03 0.10 0.03 88 983.1
20260506185523 0 332 0.0 0.0 0.00 0.08 0.00 88 983.1
20260506185519 0 347 0.0 0.0 0.03 0.10 0.03 87 983.0
20260506184519 0 358 0.0 0.0 0.00 0.08 0.00 88 983.1
20260506184019 0 35 0.0 0.0 0.00 0.10 0.00 87 983.1
20260506183519 0 340 0.0 0.0 0.00 0.10 0.00 87 983.2
20260506183019 0 321 0.0 0.0 0.00 0.10 0.00 89 983.1
20260506182517 0 338 0.0 0.0 0.00 0.10 0.00 90 983.1
20260506182017 0 341 0.0 0.0 0.00 0.10 0.00 90 983.1
20260506181521 0 12 0.0 0.0 0.00 0.10 0.00 91 983.2
20260506181518 0 323 0.0 0.0 0.00 0.10 0.00 91 983.1
20260506180517 0 330 0.0 0.0 0.00 0.10 0.00 91 983.1
20260506180022 0 321 0.0 0.0 0.00 0.10 0.00 92 983.0
20260506180017 0 338 0.0 0.0 0.00 0.10 0.00 91 983.1
20260506175517 0 330 0.0 0.0 0.00 0.10 0.00 91 983.0
20260506174517 0 1 0.0 0.0 0.00 0.10 0.00 91 983.0
20260506174024 0 331 0.0 0.0 0.00 0.10 0.00 93 983.0
20260506174017 0 316 0.0 0.0 0.00 0.10 0.00 92 983.0
20260506173517 0 323 0.0 0.0 0.00 0.10 0.00 93 983.0
20260506172518 0 10 0.0 0.0 0.00 0.10 0.00 93 983.0
20260506172018 0 6 0.0 0.0 0.00 0.10 0.00 94 982.8
20260506171517 0 329 0.0 0.0 0.00 0.10 0.00 93 982.8
20260506171021 0 23 0.0 0.0 0.00 0.13 0.00 94 982.5
20260506171017 0 37 0.0 0.0 0.00 0.10 0.00 94 982.7
20260506170516 0 323 0.0 0.0 0.00 0.13 0.00 94 982.5
20260506165517 0 350 0.0 0.0 0.00 0.13 0.00 95 982.1
20260506165015 0 324 0.0 0.0 0.00 0.13 0.00 96 982.2
20260506164515 0 34 0.0 0.0 0.00 0.13 0.00 96 982.4
20260506164015 0 321 0.0 0.0 0.00 0.13 0.00 96 982.2
20260506163515 0 27 0.0 0.0 0.00 0.13 0.00 96 982.4
20260506163020 0 350 0.0 0.0 0.00 0.13 0.00 96 982.2
20260506163016 0 326 0.0 0.0 0.00 0.13 0.00 96 982.4
20260506162620 0 331 0.0 0.0 0.00 0.13 0.00 96 982.2
20260506161517 0 348 0.0 0.0 0.00 0.13 0.00 96 982.1
20260506161513 0 1 0.0 0.0 0.00 0.13 0.00 96 982.1
20260506160512 0 6 0.0 0.0 0.00 0.13 0.00 96 982.1
20260506160010 0 344 0.0 0.0 0.00 0.13 0.00 96 982.0
20260506155509 0 343 0.0 0.0 0.00 0.13 0.00 96 982.1
20260506155008 0 11 0.0 0.0 0.00 0.13 0.00 96 982.1
20260506154509 0 17 0.0 0.0 0.00 0.13 0.00 95 982.1
20260506154008 0 321 0.0 0.0 0.00 0.13 0.00 96 982.1
20260506153510 0 27 0.0 0.0 0.00 0.13 0.00 96 982.0
20260506153506 0 327 0.0 0.0 0.00 0.13 0.00 96 982.0
20260506152505 0 356 0.0 0.0 0.00 0.13 0.00 96 981.9
20260506152005 0 321 0.0 0.0 0.00 0.13 0.00 96 981.8
20260506151504 0 327 0.0 0.0 0.00 0.13 0.00 96 981.8
20260506151004 0 340 0.0 0.0 0.00 0.13 0.00 96 981.7
20260506150504 0 335 0.0 0.0 0.00 0.13 0.00 97 981.5
20260506150004 0 309 0.0 0.0 0.00 0.13 0.00 97 981.5
20260506145508 0 329 0.0 0.0 0.00 0.13 0.00 97 981.4
20260506145504 0 339 0.0 0.0 0.00 0.13 0.00 97 981.4
20260506144505 0 328 0.0 0.0 0.00 0.15 0.00 97 981.4
20260506144004 0 356 0.0 0.0 0.00 0.15 0.00 97 981.5
20260506143509 0 356 0.0 0.0 0.00 0.15 0.00 97 981.5
20260506143504 0 356 0.0 0.0 0.00 0.15 0.00 97 981.5
20260506142502 -1 356 0.0 0.0 0.00 0.15 0.00 97 981.5
20260506142002 -1 356 0.0 0.0 0.00 0.15 0.00 97 981.4
20260506141503 -1 356 0.0 0.0 0.00 0.15 0.00 97 981.3
20260506141003 -1 328 0.0 0.0 0.00 0.15 0.00 97 981.3
20260506140502 -1 356 0.0 0.0 0.00 0.18 0.00 97 981.3
20260506140005 -1 356 0.0 0.0 0.00 0.18 0.00 96 981.4
20260506140001 -2 356 0.0 0.0 0.00 0.18 0.00 96 981.4
20260506135001 -2 15 0.0 0.0 0.00 0.18 0.00 96 981.4
20260506134459 -2 10 0.0 3.2 0.00 0.20 0.00 96 981.3
20260506133959 -2 338 0.0 3.2 0.00 0.20 0.00 96 981.3
20260506133459 -2 352 0.0 1.6 0.00 0.20 0.00 96 981.3
20260506132959 -2 22 0.0 1.6 0.00 0.20 0.00 96 981.2
20260506132457 -1 352 0.0 1.6 0.00 0.20 0.00 97 981.2
20260506132000 -2 356 0.0 0.0 0.00 0.20 0.00 97 980.8
20260506131956 -1 16 0.0 0.0 0.00 0.20 0.00 97 980.9
20260506130952 -2 358 0.0 0.0 0.00 0.20 0.00 97 980.7
20260506130452 -2 8 0.0 4.8 0.00 0.20 0.00 97 980.7
20260506125955 -2 344 0.0 4.8 0.00 0.20 0.00 97 980.6
20260506125951 -2 110 0.0 0.0 0.00 0.20 0.00 96 980.6
20260506124950 -2 110 0.0 0.0 0.00 0.20 0.00 96 980.5
20260506124450 -2 126 0.0 0.0 0.00 0.20 0.00 96 980.5
20260506123950 -2 127 0.0 0.0 0.00 0.20 0.00 96 980.5
20260506123450 -2 353 0.0 0.0 0.00 0.20 0.00 96 980.2
20260506122954 -2 24 0.0 0.0 0.00 0.20 0.00 96 980.2
20260506122950 -2 345 0.0 0.0 0.00 0.20 0.00 96 980.2
20260506122555 -2 338 0.0 0.0 0.00 0.20 0.00 96 980.4
20260506121452 -2 312 0.0 0.0 0.00 0.20 0.00 96 980.2
20260506121448 -2 11 0.0 0.0 0.00 0.20 0.00 96 980.4
20260506120452 -2 46 0.0 0.0 0.00 0.23 0.00 96 980.1
20260506120448 -2 323 0.0 0.0 0.00 0.23 0.00 96 980.1
20260506115449 -2 214 0.0 0.0 0.00 0.23 0.00 96 980.0
20260506114953 -2 285 0.0 0.0 0.00 0.25 0.00 96 979.9
20260506114948 -2 22 0.0 0.0 0.00 0.23 0.00 96 980.0
20260506114448 -2 352 0.0 0.0 0.00 0.25 0.00 96 980.0
20260506114053 -2 321 0.0 0.0 0.00 0.28 0.00 96 979.6
20260506112951 -2 217 0.0 0.0 0.00 0.30 0.00 96 979.8
20260506112946 -2 20 0.0 0.0 0.00 0.28 0.00 96 979.5
20260506111946 -2 308 0.0 0.0 0.00 0.30 0.00 96 979.9
20260506111445 -2 13 0.0 0.0 0.00 0.30 0.00 96 979.9
20260506110949 -2 4 0.0 0.0 0.00 0.30 0.00 96 979.9
20260506110944 -2 343 0.0 0.0 0.00 0.30 0.00 96 979.9
20260506110444 -2 353 0.0 0.0 0.00 0.30 0.00 96 979.9
20260506105444 -2 348 0.0 0.0 0.00 0.30 0.00 96 979.8
20260506104948 -2 27 0.0 0.0 0.00 0.30 0.00 96 979.8
20260506104944 -2 29 0.0 0.0 0.00 0.30 0.00 96 979.8
20260506103942 -2 343 0.0 0.0 0.00 0.30 0.00 96 979.6
20260506103442 -2 333 0.0 0.0 0.00 0.30 0.00 96 979.6
20260506102942 -2 327 0.0 0.0 0.00 0.30 0.00 96 979.6
20260506102442 -2 323 0.0 0.0 0.00 0.30 0.00 96 979.6
20260506101942 -2 348 0.0 0.0 0.00 0.30 0.00 96 979.6
20260506101446 -2 331 0.0 0.0 0.00 0.30 0.00 96 979.6
20260506101442 -2 330 0.0 0.0 0.00 0.30 0.00 96 979.6
20260506100442 -2 354 0.0 0.0 0.00 0.30 0.00 96 979.5
20260506095942 -2 316 0.0 0.0 0.00 0.30 0.00 96 979.4
20260506095447 -2 335 0.0 0.0 0.00 0.30 0.00 96 979.5
20260506095443 -2 300 0.0 0.0 0.00 0.30 0.00 96 979.4
20260506094442 -2 25 0.0 0.0 0.00 0.30 0.00 96 979.4
20260506094438 -2 35 0.0 0.0 0.00 0.30 0.00 96 979.4
20260506094043 -2 0 0.0 0.0 0.00 0.30 0.00 96 979.4
20260506092938 -2 18 0.0 0.0 0.00 0.30 0.00 96 979.3
20260506092441 -2 0 0.0 0.0 0.00 0.30 0.00 96 979.4
20260506092437 -2 20 0.0 0.0 0.00 0.30 0.00 97 979.3
20260506092040 -2 323 0.0 0.0 0.00 0.30 0.00 97 979.3
20260506091541 -2 352 0.0 0.0 0.00 0.30 0.00 97 979.3
20260506090435 -2 5 0.0 0.0 0.00 0.30 0.00 97 979.3
20260506085934 -2 333 0.0 0.0 0.00 0.30 0.00 97 979.3
20260506085437 -2 321 0.0 1.6 0.00 0.30 0.00 97 979.4
20260506085433 -2 316 0.0 1.6 0.00 0.30 0.00 97 979.4
20260506084932 -2 17 0.0 1.6 0.00 0.30 0.00 97 979.4
20260506083932 -1 338 0.0 3.2 0.00 0.30 0.00 97 979.5
20260506083432 -1 310 0.0 3.2 0.00 0.30 0.00 97 979.6
20260506082931 -1 330 0.0 1.6 0.00 0.30 0.00 97 979.6
20260506082429 -1 8 0.0 3.2 0.00 0.30 0.00 97 979.6
20260506081929 -1 319 0.0 3.2 0.00 0.30 0.00 97 979.6
20260506081429 -1 323 0.0 1.6 0.00 0.30 0.00 97 979.6
20260506080930 -1 321 0.0 1.6 0.00 0.30 0.00 97 979.5
20260506080431 -1 12 0.0 1.6 0.00 0.30 0.00 97 979.3
20260506073427 -1 13 0.0 1.6 0.00 0.33 0.00 97 979.4
20260506072928 -1 309 0.0 1.6 0.00 0.33 0.00 97 979.4
20260506072428 -1 17 0.0 1.6 0.00 0.33 0.00 97 979.4
20260506071928 -1 311 0.0 1.6 0.00 0.33 0.00 97 979.4
20260506071428 -1 318 0.0 1.6 0.00 0.33 0.00 97 979.5
20260506070926 -1 334 0.0 0.0 0.00 0.33 0.00 97 979.5
20260506070426 -1 335 0.0 0.0 0.00 0.36 0.00 97 979.4
20260506062425 -1 348 0.0 0.0 0.00 0.43 0.00 97 979.3
20260506061929 -1 337 0.0 1.6 0.00 0.43 0.00 97 979.2
20260506061925 -1 327 0.0 1.6 0.00 0.43 0.00 97 979.3
20260506060925 -1 353 0.0 0.0 0.00 0.43 0.00 97 979.1
20260506060425 -1 335 0.0 0.0 0.00 0.43 0.00 97 979.1
20260506050414 -1 26 0.0 3.2 0.00 0.48 0.43 97 978.8